Regional Weather Roundup
Issued by NWS

Home | Current Version | Previous Version | Graphics & Text | Print | Product List | Glossary On
Versions: 1 2 3 4 5 6 7 8 9 10 11 12 13 14 15 16 17 18 19 20 21 22 23 24 25 26 27 28 29 30 31 32 33 34 35 36 37 38 39 40 41 42 43 44 45 46 47 48 49 50
000
ASUS43 KMPX 311710
RWRMN
WEATHER ROUNDUP FOR MINNESOTA
NATIONAL WEATHER SERVICE TWIN CITIES/CHANHASSEN MN
1200 PM CDT FRI OCT 31 2014


NOTE: "FAIR" INDICATES FEW OR NO CLOUDS BELOW 12,000 FEET WITH NO
SIGNIFICANT WEATHER AND/OR OBSTRUCTIONS TO VISIBILITY. N/A MEANS
CURRENT SKY AND/OR WEATHER CONDITIONS ARE NOT AVAILABLE.

MNZ060>063-068>070-311800-
   Twin Cities Metro

CITY           SKY/WX    TMP DP  RH WIND       PRES   REMARKS
TWIN CITIES    SUNNY     35  17  47 N14       30.57R WCI  26
ST PAUL        SUNNY     35  19  52 N12G18    30.58R WCI  27
CRYSTAL        SUNNY     37  17  44 N9        30.57R
BLAINE         SUNNY     36  19  51 N10       30.57
LAKEVILLE      SUNNY     34  18  51 N9        30.55R WCI  26
EDEN PRAIRIE   SUNNY     34  18  52 N12       30.56R WCI  25
SOUTH ST PAUL  SUNNY     35  18  49 N9        30.56R WCI  28
LAKE ELMO      FAIR      34  19  55 N8        30.56R WCI  27
$$
MNZ001>005-007-008-013>017-022>024-027-028-311800-
   Northwest Minnesota

CITY           SKY/WX    TMP DP  RH WIND       PRES   REMARKS
BEMIDJI        SUNNY     30  18  61 CALM      30.56F
HALLOCK        SUNNY     34  21  60 S13       30.56F WCI  25
ROSEAU         SUNNY     32  23  69 S6        30.57S WCI  26
WARROAD        SUNNY     30  25  80 S3        30.57S
THIEF RVR FALL SUNNY     30  21  69 S8        30.57F WCI  23
CROOKSTON      SUNNY     32  21  64 S9        30.59F WCI  24
FOSSTON        SUNNY     34  23  64 CALM      30.58S
DETROIT LAKES  SUNNY     32  21  64 CALM      30.58S
MOORHEAD       SUNNY     32  25  74 CALM      30.60F
PARK RAPIDS    SUNNY     31  19  61 CALM      30.56F
MAHNOMEN       FAIR      30  21  67 CALM      30.57F
$$
MNZ006-009>011-018-025>026-311800-
   North Central Minnesota

CITY           SKY/WX    TMP DP  RH WIND       PRES   REMARKS
BAUDETTE       SUNNY     31  21  66 CALM      30.57S
FLAG ISLAND    SUNNY     30  21  69 CALM      30.55F
INTL FALLS     SUNNY     33  20  58 VRB7      30.56S WCI  27
WASKISH        SUNNY     30  18  59 CALM      30.57F
BIG FORK       SUNNY     34  19  55 CALM      30.56F
LONGVILLE      SUNNY     34  18  51 NE5       30.55F WCI  30
GRAND RAPIDS   SUNNY     30  18  59 N5        30.55F WCI  25
CRANE LAKE     SUNNY     28  21  74 CALM      30.57F
ORR            SUNNY     30  18  59 W3        30.53S
COOK           SUNNY     30  19  64 CALM      30.55F
WALKER         FAIR      30  19  61 CALM      30.57F
$$
MNZ012-019>021-037-311800-
   Northeast Minnesota

CITY           SKY/WX    TMP DP  RH WIND       PRES   REMARKS
DULUTH         MOSUNNY   32  18  56 N12       30.52S WCI  23
ELY            MOSUNNY   28  19  69 CALM      30.53S
HIBBING        SUNNY     32  18  56 NE3       30.55F
EVELETH        SUNNY     32  23  69 CALM      30.55F
DULUTH HARBOR  SUNNY     36  21  55 NE5       30.58R
TWO HARBORS    SUNNY     37  21  52 NE7       30.52S
SILVER BAY     SUNNY     36  19  51 NW7       30.52R
GRAND MARAIS     N/A     35  20  54 NW7       30.54F WCI  29
G MARAIS ARPRT PTSUNNY   27  16  63 N13       30.48F WCI  16
$$
MNZ029>031-032-039>041-046>048-054>057-064-311800-
   West Central Minnesota

CITY           SKY/WX    TMP DP  RH WIND       PRES   REMARKS
FERGUS FALLS   SUNNY     30  18  59 CALM      30.61F
WHEATON        SUNNY     28  21  74 CALM      30.62F
MORRIS         SUNNY     34  21  60 E3        30.59S
ALEXANDRIA     SUNNY     32  18  56 NE7       30.58F WCI  26
ELBOW LAKE     FAIR      32  22  67 SE3       30.59S
WADENA         SUNNY     30  19  64 E3        30.56F
GLENWOOD       SUNNY     34  19  55 NE6       30.58S WCI  29
APPLETON       SUNNY     36  21  55 NE6       30.61S
BENSON         SUNNY     32  21  64 CALM      30.60S
ORTONVILLE     SUNNY     30  18  59 NE3       30.60F
MADISON        SUNNY     34  23  64 CALM      30.61S
WILLMAR        FAIR      34  18  51 NE8       30.60S WCI  27
$$
MNZ033>034-036-042>043-049>051-058-059-311800-
   Central Minnesota

CITY           SKY/WX    TMP DP  RH WIND       PRES   REMARKS
ST CLOUD       SUNNY     36  17  46 N9        30.58S
SAUK CENTRE    FAIR      31  17  55 N5        30.58F WCI  27
PAYNESVILLE    SUNNY     30  17  58 NW6       30.59F WCI  24
AITKIN         SUNNY     36  18  48 N5        30.55S
PINE RIVER     SUNNY     30  19  64 N5        30.58F WCI  25
BRAINERD       SUNNY     31  16  54 VRB3      30.57F
STAPLES        SUNNY     30  18  59 CALM      30.57F
LONG PRAIRIE   FAIR      32  19  59 N5        30.58F WCI  27
LITTLE FALLS   SUNNY     32  18  55 CALM      30.58S
LITCHFIELD     SUNNY     34  19  55 N6        30.58S WCI  29
BUFFALO        SUNNY     34  17  50 N8        30.58S WCI  27
MAPLE LAKE     SUNNY     35  21  57 N7        30.59R WCI  29
$$
MNZ037-044-045-052-053-311800-
   East Central Minnesota

CITY           SKY/WX    TMP DP  RH WIND       PRES   REMARKS
PRINCETON      SUNNY     36  18  48 N3        30.58R
MORA           SUNNY     34  18  51 NE7       30.59R WCI  28
CAMBRIDGE      SUNNY     36  19  51 N8        30.56R
RUSH CITY      SUNNY     33  18  53 N9        30.57S WCI  26
MOOSE LAKE     SUNNY     34  19  55 N7        30.54S WCI  28
HINCKLEY       FAIR      34  19  55 N6        30.57R WCI  29
CLOQUET        SUNNY     34  18  51 N7        30.54S WCI  28
MCGREGOR       SUNNY     32  21  64 N5        30.56F WCI  27
$$
MNZ071>073-080-081-089-090-097-098-311800-
   Southwest Minnesota

CITY           SKY/WX    TMP DP  RH WIND       PRES   REMARKS
MONTEVIDEO     SUNNY     36  21  55 E6        30.62R
GRANITE FALLS  SUNNY     32  20  60 NE6       30.62S WCI  27
CANBY          SUNNY     31  22  70 NE3       30.62S
MARSHALL       SUNNY     30  18  59 N7        30.59S WCI  23
REDWOOD FALLS  SUNNY     35  20  54 N9        30.59F WCI  28
OLIVIA         SUNNY     34  21  60 NE7       30.58S WCI  28
PIPESTONE      SUNNY     30  19  64 E8        30.56S WCI  23
WINDOM         SUNNY     32  21  64 NE9G16    30.56F WCI  24
WORTHINGTON    SUNNY     30  18  59 NE10      30.57R WCI  21
JACKSON        SUNNY     32  19  59 N14       30.56S WCI  22
TRACY          SUNNY     32  20  62 N8        30.59S WCI  25
SLAYTON        SUNNY     31  18  59 N7        30.58R WCI  24
$$
MNZ065>067-074>077-082>085-091>093-311800-
   South Central Minnesota

CITY           SKY/WX    TMP DP  RH WIND       PRES   REMARKS
MANKATO        SUNNY     34  18  51 NE12      30.56S WCI  25
NEW ULM        SUNNY     32  19  59 N7        30.58R WCI  26
ST JAMES       SUNNY     36  18  48 N12       30.59S
FAIRMONT       SUNNY     34  16  47 N13G20    30.56R WCI  25
GLENCOE        SUNNY     34  20  57 N9        30.57S WCI  27
FARIBAULT      SUNNY     36  18  48 NW9       30.55R
OWATONNA       SUNNY     34  18  51 N15       30.53S WCI  24
WASECA         SUNNY     34  14  44 N9G17     30.56R WCI  26
ALBERT LEA     SUNNY     36  18  48 N14       30.52R
$$
MNZ078>079-086>088-094>096-311800-
   Southeast Minnesota

CITY           SKY/WX    TMP DP  RH WIND       PRES   REMARKS
ROCHESTER      SUNNY     35  19  52 N17G25    30.50R WCI  25
RED WING       SUNNY     37  16  41 N13       30.52R
STANTON        SUNNY     36  19  49 N16       30.53R
DODGE CENTER   MOSUNNY   36  19  51 N13G20    30.50R
WINONA         PTSUNNY   36  21  55 N10G23    30.50R
AUSTIN         SUNNY     36  19  51 N9G18     30.50R
PRESTON        MOSUNNY   34  19  54 N17G25    30.46S WCI  23
$$
ABBREVIATIONS USED IN REMARKS
   TC - TEMPERATURES IN CELSIUS
  WCI - WIND CHILL INDEX
   HX - HEAT INDEX
  VSB - VISIBILITY
$$



USA.gov is the U.S. government's official web portal to all federal, state and local government web resources and services.